Temperature
0 1 1 1 1 1 0 0 1 1 2 3 3 2 2 3 3 3 3 3 3 3 3 3 3 3 3 3 3 3 3 3 3 3 2 2 2 2 2 2 2 2 1 1
-0 1 0 1 1 1 1 0 0 1 2 2 3 3 2 2 2 2 2 2 2 2 2 2 2 2 2 2 2 2 2 2 2 2 2 2 2 1 1 1 1 1 1 1
-0 -0 0 0 0 1 0 -0 0 1 2 1 1 1 1 2 2 2 2 2 2 2 2 2 2 2 2 2 2 2 2 2 2 2 1 1 1 1 1 1 1 1 0 0
-2 -1 0 2 0 1 1 0 -0 -0 0 0 1 1 1 2 1 1 1 1 1 1 1 1 1 1 1 1 1 1 1 1 1 1 1 1 1 1 1 0 0 0 0 -0
-2 -1 -0 1 0 -0 -0 -0 -1 -1 -1 -0 0 0 0 1 1 1 1 1 1 0 1 1 1 1 1 1 1 1 1 1 1 1 1 0 0 0 0 0 -0 -0 -0 -1
-2 -1 -0 1 0 0 -0 -0 -0 -1 -1 -1 -1 -1 -1 1 1 0 0 0 -0 -0 0 0 0 0 0 0 0 0 0 0 0 0 0 -0 -0 -0 -0 -0 -0 -1 -1 -1
-2 -2 -1 -1 -1 -0 0 0 -0 -1 -1 -1 -2 -1 0 0 -0 -0 -0 -0 -0 -0 -0 -0 -0 -0 -0 -0 -0 -0 -0 -0 -0 -0 -1 -1 -1 -1 -1 -1 -1 -1 -1 -1
-3 -2 -1 -1 -1 -1 -1 -0 -0 -1 -0 -1 -1 -0 -1 -1 -1 -1 -1 -1 -1 -1 -1 -1 -1 -1 -1 -1 -1 -1 -1 -1 -1 -1 -1 -1 -1 -1 -1 -1 -1 -1 -2 -2
-2 -1 -1 -1 -1 -0 0 -1 -1 -1 -1 -1 -1 -1 -1 -1 -1 -2 -2 -1 -1 -1 -1 -1 -1 -1 -1 -1 -1 -1 -1 -1 -1 -2 -2 -2 -2 -2 -2 -2 -2 -2 -2 -2
-3 -3 -2 -1 -1 -1 -1 -1 -1 -1 -1 -1 -2 -2 -2 -2 -2 -2 -2 -2 -2 -2 -2 -2 -2 -2 -2 -2 -2 -2 -2 -2 -2 -2 -2 -2 -2 -2 -2 -2 -2 -2 -3 -3
-4 -4 -3 -2 -1 -1 -1 -1 -1 -1 -2 -2 -2 -2 -2 -3 -3 -3 -3 -3 -3 -2 -2 -2 -2 -2 -2 -3 -2 -2 -2 -3 -3 -3 -3 -3 -3 -3 -3 -3 -3 -3 -3 -3
-3 -3 -3 -2 -1 -2 -2 -2 -2 -2 -2 -2 -3 -3 -3 -3 -3 -3 -3 -3 -3 -3 -3 -3 -3 -3 -3 -3 -3 -3 -3 -3 -3 -3 -3 -3 -3 -3 -3 -3 -3 -3 -3 -3
-2 -2 -2 -2 -2 -2 -2 -2 -3 -3 -3 -3 -3 -3 -3 -3 -3 -4 -4 -4 -4 -3 -3 -3 -3 -3 -3 -4 -4 -4 -4 -4 -4 -4 -4 -4 -4 -4 -4 -4 -4 -4 -4 -4
-2 -2 -3 -3 -3 -3 -3 -3 -3 -3 -3 -3 -4 -4 -4 -4 -4 -4 -4 -4 -4 -4 -4 -4 -4 -4 -4 -4 -4 -4 -4 -4 -4 -4 -4 -4 -4 -4 -4 -4 -4 -4 -4 -4
-2 -2 -3 -3 -3 -3 -3 -3 -4 -4 -4 -4 -4 -4 -4 -4 -4 -4 -5 -5 -4 -4 -4 -4 -4 -4 -4 -4 -4 -4 -4 -4 -4 -4 -5 -5 -5 -5 -4 -4 -5 -5 -5 -4
-3 -3 -3 -4 -4 -4 -4 -4 -4 -4 -4 -4 -4 -4 -5 -5 -5 -5 -5 -5 -5 -5 -5 -5 -5 -5 -5 -5 -5 -5 -5 -5 -5 -5 -5 -5 -5 -5 -5 -5 -5 -5 -5 -5
-4 -4 -4 -4 -4 -4 -4 -4 -4 -5 -5 -5 -5 -5 -5 -5 -5 -5 -5 -5 -5 -5 -5 -5 -5 -5 -5 -5 -5 -5 -5 -5 -5 -5 -5 -5 -5 -5 -5 -5 -5 -5 -5 -5
-3 -4 -4 -4 -4 -5 -5 -5 -5 -5 -5 -5 -5 -5 -5 -5 -5 -5 -5 -5 -5 -5 -5 -5 -5 -5 -5 -5 -5 -5 -5 -5 -5 -5 -6 -6 -6 -6 -6 -6 -5 -5 -5 -5
-4 -4 -4 -4 -5 -5 -5 -5 -5 -5 -5 -5 -5 -5 -5 -6 -6 -6 -6 -6 -6 -5 -5 -5 -6 -6 -6 -6 -6 -6 -6 -6 -6 -6 -6 -6 -6 -6 -6 -6 -6 -6 -6 -6
-4 -4 -5 -5 -5 -5 -5 -5 -5 -6 -6 -6 -6 -6 -6 -6 -6 -6 -6 -6 -6 -6 -6 -6 -6 -6 -6 -6 -6 -6 -6 -6 -6 -6 -6 -6 -6 -6 -6 -6 -6 -6 -6 -6
-5 -5 -5 -5 -5 -6 -6 -6 -6 -6 -6 -6 -6 -6 -6 -6 -6 -6 -6 -6 -6 -6 -6 -6 -6 -6 -6 -6 -6 -6 -6 -6 -6 -6 -6 -6 -6 -6 -6 -6 -6 -6 -6 -6
-5 -5 -6 -6 -6 -6 -6 -6 -6 -6 -6 -6 -6 -6 -6 -6 -6 -7 -7 -7 -7 -7 -7 -7 -7 -7 -7 -7 -6 -6 -6 -7 -7 -7 -7 -7 -7 -7 -7 -6 -6 -6 -6 -6
-5 -6 -6 -6 -6 -6 -6 -6 -6 -6 -6 -6 -6 -6 -7 -7 -7 -7 -7 -7 -7 -7 -7 -7 -7 -7 -7 -7 -7 -7 -7 -7 -7 -7 -7 -7 -7 -7 -7 -7 -7 -6 -6 -6
-6 -6 -6 -6 -6 -6 -6 -6 -7 -7 -7 -7 -7 -7 -7 -7 -7 -7 -7 -7 -7 -7 -7 -7 -7 -7 -7 -7 -7 -7 -7 -7 -7 -7 -7 -7 -7 -7 -7 -7 -7 -7 -6 -6
-6 -6 -6 -6 -7 -6 -7 -7 -7 -7 -7 -7 -7 -7 -7 -7 -7 -7 -7 -7 -7 -7 -7 -7 -7 -7 -7 -7 -7 -7 -7 -7 -7 -7 -7 -7 -7 -7 -7 -7 -7 -7 -7 -7
-6 -6 -6 -7 -7 -7 -7 -7 -7 -7 -7 -7 -7 -7 -8 -8 -8 -8 -8 -8 -8 -8 -8 -8 -8 -7 -7 -8 -7 -7 -8 -8 -8 -8 -8 -7 -7 -7 -7 -7 -7 -7 -7 -7
-6 -7 -7 -7 -7 -7 -7 -7 -7 -7 -7 -7 -7 -8 -8 -8 -8 -8 -8 -8 -8 -8 -8 -8 -8 -8 -8 -8 -8 -8 -8 -8 -8 -8 -8 -8 -8 -8 -7 -7 -7 -7 -7 -7
Wind_Speed
5 4 3 4 6 7 8 8 8 9 9 12 8 6 5 5 5 4 4 3 4 4 4 4 4 4 3 3 3 2 3 3 4 4 3 3 3 3 3 4 4 4 4 4
3 3 4 7 8 10 10 8 9 9 12 10 5 2 3 4 4 4 4 4 5 5 5 4 4 4 4 3 3 2 3 3 3 3 2 3 4 3 3 3 3 4 4 5
3 3 2 8 9 11 8 7 9 11 10 5 3 4 4 5 4 4 5 5 5 6 5 5 5 4 4 4 3 2 2 3 2 2 3 3 3 3 4 4 4 4 4 5
1 1 6 8 3 7 8 8 7 6 5 5 6 5 5 4 4 5 5 5 6 5 5 5 4 4 3 2 2 2 2 2 2 2 3 3 3 3 3 3 4 4 4 4
3 3 7 7 3 4 5 6 6 7 6 6 4 3 3 3 3 5 5 5 5 5 5 4 4 3 3 2 2 2 2 3 3 3 3 2 3 3 3 3 3 3 4 4
3 4 7 6 2 2 4 5 4 4 5 4 1 2 5 4 4 5 5 4 4 4 3 4 4 2 2 2 2 3 4 3 3 3 2 3 3 3 3 2 3 3 3 4
5 5 8 6 2 4 4 6 3 3 4 3 4 6 5 5 5 5 4 4 3 3 3 3 3 2 2 2 4 4 3 3 2 2 2 3 2 2 2 2 1 2 3 3
5 5 8 3 4 5 6 2 2 3 3 4 5 5 5 5 4 4 4 3 3 3 4 4 3 2 2 4 4 3 2 2 2 2 2 2 1 2 2 1 1 2 2 2
8 8 4 3 4 4 2 2 3 3 4 3 4 5 5 5 5 4 4 4 4 3 4 4 3 2 3 4 3 2 2 2 2 2 2 1 1 1 1 1 1 1 1 2
4 6 4 3 3 2 2 3 3 3 3 3 4 5 5 5 4 4 4 4 3 3 4 5 4 3 3 3 2 2 2 2 2 2 2 2 1 1 1 1 1 1 2 2
5 5 3 4 4 3 2 2 2 2 3 3 3 5 5 5 4 4 4 3 3 3 4 5 4 4 3 2 1 2 2 2 2 2 2 2 1 1 1 1 2 2 2 2
7 6 5 6 4 3 2 3 3 2 3 3 3 4 4 4 4 3 4 3 3 3 4 4 4 4 3 2 1 2 2 2 2 2 2 1 1 2 2 2 3 3 3 3
6 4 4 4 3 3 3 3 3 3 3 4 3 3 3 3 3 3 3 3 4 4 4 4 4 4 4 3 2 3 3 3 2 2 2 1 1 1 2 3 3 3 3 4
3 2 2 3 3 3 2 2 2 2 2 2 3 3 2 3 3 3 4 4 4 4 4 3 3 4 4 3 2 2 3 3 2 2 2 2 2 2 2 2 2 2 3 4
3 3 4 3 2 2 1 1 1 2 3 3 2 2 2 3 4 4 4 4 3 3 4 3 4 5 4 3 2 2 2 2 2 2 2 2 2 2 2 2 2 2 2 3
2 1 1 2 2 2 1 1 2 3 3 3 3 3 3 3 3 4 4 3 3 4 4 4 4 5 4 3 2 2 2 3 2 2 2 2 2 2 2 2 2 2 2 2
3 3 3 3 3 3 3 3 3 4 3 4 4 4 3 3 3 4 4 4 3 4 4 4 5 5 4 3 2 2 2 2 2 2 2 2 2 2 2 2 2 3 3 3
5 5 5 5 4 4 4 3 3 3 3 4 4 3 2 3 4 4 4 4 4 4 4 5 5 4 4 3 3 2 2 1 1 2 2 2 2 2 2 2 3 3 3 3
2 3 3 3 4 4 3 3 3 3 3 3 2 3 3 3 3 4 3 3 3 5 6 6 6 4 4 4 3 1 1 1 1 1 1 2 2 2 2 2 3 3 2 2
1 1 2 2 2 2 3 3 3 3 3 2 2 2 3 4 3 3 3 3 4 4 5 6 5 4 4 3 3 1 1 1 1 1 1 1 2 2 2 2 2 2 2 2
2 1 1 2 2 2 2 2 2 2 2 2 2 3 3 4 3 3 2 4 5 5 5 6 4 3 3 3 2 1 2 2 2 2 2 2 2 2 2 2 2 2 2 2
2 2 2 2 2 2 2 2 2 2 2 2 2 3 3 4 4 3 3 4 5 6 4 3 3 4 4 3 2 2 2 2 2 2 2 2 2 2 2 2 2 2 1 1
2 2 2 2 2 2 2 2 2 2 3 3 3 3 3 4 3 3 4 4 4 6 4 3 5 6 5 2 1 2 2 2 2 2 2 2 2 2 2 2 2 2 1 1
2 2 2 1 1 1 2 2 2 2 2 3 3 3 3 3 3 3 3 5 6 5 3 5 6 5 3 1 1 1 1 2 2 2 2 2 2 2 2 2 2 2 1 1
2 2 2 2 2 2 2 2 1 2 2 2 3 3 3 2 3 3 3 4 5 4 3 5 5 5 2 1 1 1 1 2 2 2 1 1 1 1 1 1 2 2 1 1
2 2 3 3 3 2 2 1 1 2 2 2 2 2 2 2 2 3 3 3 3 4 3 3 3 3 1 1 1 1 1 1 2 1 1 1 1 1 1 1 2 2 2 2
1 1 1 1 2 2 2 2 2 2 2 2 3 2 2 2 2 2 2 2 2 2 2 2 2 1 1 1 1 1 1 1 1 1 1 1 1 1 2 2 2 2 2 2
Wind_Direction
251 248 200 224 228 206 206 208 216 243 249 263 261 263 273 286 290 284 285 289 288 289 293 303 306 298 285 274 265 240 217 220 231 235 229 221 225 233 237 238 236 222 217 223
276 254 229 255 249 227 228 227 235 254 264 265 263 256 274 284 281 282 282 283 289 295 298 294 289 287 289 277 270 255 235 239 241 233 234 233 233 234 236 246 242 221 217 220
256 288 314 266 236 217 220 218 206 233 249 274 289 270 262 269 270 272 276 280 283 285 280 279 281 278 275 265 267 259 252 255 246 234 236 241 247 241 235 238 229 219 218 219
202 89 236 247 222 204 216 239 224 232 263 264 258 265 267 254 254 273 281 283 285 287 288 288 285 286 283 271 259 257 259 259 256 244 248 254 251 258 254 241 227 221 221 224
169 218 267 284 255 186 196 256 235 236 267 282 290 327 292 257 265 268 271 272 273 277 283 290 291 289 291 281 276 272 270 269 266 253 251 255 258 262 271 245 235 225 221 223
174 199 239 255 260 185 131 270 254 224 252 275 332 307 278 294 300 292 290 282 283 289 294 294 296 292 273 269 270 269 272 274 272 260 254 258 261 267 279 256 236 224 226 230
208 227 258 259 245 118 167 248 261 226 244 246 231 241 269 300 304 295 292 293 297 299 296 288 291 286 264 268 265 272 279 280 282 278 271 264 268 275 274 264 245 232 233 242
183 213 251 223 142 180 223 263 258 256 250 256 262 275 283 293 298 307 312 314 313 312 309 307 299 264 262 270 276 287 288 287 288 289 287 287 273 280 273 249 241 246 244 264
197 217 246 184 197 229 212 231 250 253 267 261 267 277 286 290 295 303 306 312 312 304 308 309 299 253 254 276 285 285 282 280 292 300 296 288 265 269 279 274 240 249 246 265
238 258 264 259 261 269 235 234 255 253 257 258 266 278 288 289 294 298 301 307 312 316 312 311 311 297 262 272 277 266 267 276 280 284 297 299 284 267 243 247 245 242 241 249
241 265 291 279 257 253 265 280 286 284 271 257 261 281 282 285 288 292 303 309 309 305 301 300 307 306 301 290 265 255 264 267 273 271 273 280 281 273 261 259 240 240 240 240
230 226 213 244 243 242 258 276 271 283 298 294 272 273 278 283 284 290 302 309 309 302 298 302 307 305 301 290 257 242 254 259 257 256 264 263 268 317 333 309 295 281 272 267
228 236 228 245 262 260 249 262 268 261 258 279 288 278 279 289 295 301 305 306 299 295 295 300 306 307 305 294 264 243 246 251 248 244 246 245 247 256 293 324 317 305 298 293
219 204 250 253 261 278 270 268 278 283 282 280 291 304 307 306 312 313 309 307 305 303 303 307 307 305 307 295 269 253 251 251 251 246 239 239 242 244 243 263 294 306 311 300
251 220 220 240 274 293 301 312 331 320 320 322 319 317 316 311 307 309 311 314 318 315 316 319 312 308 313 305 284 263 254 253 252 248 243 243 244 245 245 251 263 283 309 308
248 246 194 210 244 263 275 277 278 289 299 303 305 305 298 295 299 307 312 318 318 310 309 313 309 310 314 310 299 283 267 265 262 247 244 245 242 242 245 248 254 264 270 279
185 226 231 237 248 255 252 249 250 262 275 281 286 291 296 309 315 317 318 319 306 299 301 301 304 311 312 309 301 290 281 273 266 249 242 241 243 242 243 245 252 260 267 274
214 218 217 214 222 242 262 266 264 262 261 268 280 284 291 297 298 302 308 319 324 321 313 306 303 308 305 303 297 288 280 268 252 243 243 244 249 248 249 252 257 262 270 281
211 205 214 226 227 226 238 256 263 263 269 272 271 275 282 283 285 293 302 312 315 313 311 309 310 311 302 297 302 286 282 273 271 261 251 253 258 255 254 257 262 262 262 267
223 212 219 236 239 230 241 254 259 263 267 264 271 290 300 298 292 291 293 288 284 285 293 302 307 305 298 288 292 281 271 261 261 266 265 257 255 258 259 263 265 265 265 263
225 224 231 241 258 260 245 243 244 258 272 262 253 267 281 291 292 288 288 296 299 299 301 305 308 299 293 290 278 268 259 256 255 255 260 265 268 272 274 273 275 278 278 280
216 217 230 238 249 271 273 258 249 255 269 274 276 280 287 291 295 291 275 272 292 308 313 303 300 296 299 292 272 263 259 258 257 259 262 265 264 267 273 281 280 283 286 288
220 220 224 230 237 257 281 272 260 253 256 263 266 271 275 279 277 279 292 295 297 305 310 293 300 304 305 297 273 262 260 258 261 263 264 261 260 263 270 281 286 289 291 291
215 220 224 219 206 232 266 279 281 274 269 273 271 267 267 279 286 276 276 295 306 310 308 303 310 313 316 313 278 264 255 256 263 264 262 263 263 266 274 282 285 282 282 287
208 207 200 196 214 236 250 268 296 300 304 298 294 289 275 265 270 284 291 292 304 315 313 313 320 324 331 309 289 270 260 260 262 262 261 266 269 273 280 283 283 287 291 290
210 217 221 223 228 234 236 238 257 278 288 298 305 305 307 304 292 292 296 298 301 317 320 312 314 324 330 317 303 295 284 290 302 303 297 294 293 294 292 289 291 286 287 289
212 219 222 242 248 233 225 226 237 259 266 268 287 299 308 311 310 313 314 317 319 321 319 319 323 336 338 334 334 333 328 322 312 306 306 305 299 295 299 298 294 293 294 290
Height
1499 1496 1498 1498 1498 1499 1501 1500 1501 1492 1489 1481 1478 1478 1477 1476 1475 1474 1473 1472 1471 1470 1469 1467 1467 1466 1466 1465 1465 1464 1463 1463 1462 1462 1462 1461 1461 1460 1460 1460 1460 1460 1460 1461
1499 1495 1496 1495 1492 1493 1493 1494 1493 1488 1483 1476 1475 1475 1475 1474 1473 1472 1470 1470 1469 1467 1466 1465 1464 1463 1462 1462 1461 1461 1460 1459 1459 1458 1458 1457 1457 1456 1456 1456 1455 1456 1456 1457
1499 1497 1494 1493 1486 1485 1486 1484 1484 1483 1477 1474 1474 1473 1472 1471 1470 1469 1468 1466 1466 1464 1463 1462 1461 1460 1459 1458 1458 1457 1456 1456 1455 1454 1453 1453 1452 1452 1451 1451 1451 1451 1452 1452
1502 1500 1498 1480 1476 1476 1477 1477 1477 1475 1473 1472 1471 1469 1469 1468 1467 1466 1465 1463 1462 1461 1459 1459 1458 1457 1456 1455 1454 1454 1453 1452 1451 1450 1449 1449 1448 1448 1447 1447 1447 1447 1447 1448
1502 1499 1489 1478 1474 1475 1477 1476 1472 1472 1471 1470 1468 1467 1466 1465 1465 1464 1462 1461 1459 1458 1456 1455 1454 1453 1452 1451 1451 1450 1449 1449 1448 1447 1446 1445 1444 1444 1443 1443 1443 1443 1443 1444
1499 1496 1489 1474 1470 1469 1473 1475 1468 1468 1468 1468 1467 1469 1464 1462 1461 1460 1459 1457 1456 1454 1453 1452 1451 1450 1449 1448 1447 1446 1446 1445 1445 1444 1443 1442 1441 1440 1440 1439 1439 1439 1440 1440
1494 1492 1481 1471 1469 1470 1477 1471 1465 1465 1465 1465 1465 1465 1462 1459 1458 1456 1455 1454 1452 1451 1449 1448 1447 1446 1445 1444 1444 1443 1443 1441 1441 1440 1439 1439 1438 1437 1437 1436 1436 1436 1436 1436
1490 1489 1479 1467 1468 1470 1467 1464 1463 1462 1462 1462 1461 1459 1458 1456 1454 1452 1451 1449 1448 1447 1446 1445 1444 1443 1442 1442 1441 1441 1439 1438 1438 1437 1437 1436 1435 1434 1434 1433 1433 1433 1433 1433
1475 1472 1465 1463 1463 1463 1463 1462 1461 1460 1459 1458 1457 1456 1455 1453 1451 1450 1448 1446 1445 1444 1443 1442 1441 1440 1439 1439 1438 1437 1436 1435 1435 1434 1434 1433 1432 1432 1431 1431 1430 1430 1430 1430
1471 1465 1462 1461 1461 1460 1460 1460 1459 1458 1457 1456 1454 1453 1451 1450 1449 1447 1445 1444 1442 1441 1439 1438 1438 1437 1436 1435 1435 1434 1433 1432 1432 1431 1431 1430 1430 1429 1429 1428 1428 1428 1428 1428
1466 1462 1460 1458 1458 1458 1457 1457 1456 1455 1454 1453 1451 1450 1449 1447 1445 1444 1442 1441 1440 1439 1437 1436 1434 1433 1433 1432 1431 1430 1430 1430 1429 1428 1428 1427 1427 1427 1427 1427 1427 1427 1426 1426
1459 1456 1456 1455 1455 1455 1454 1453 1453 1452 1451 1450 1449 1447 1446 1444 1443 1442 1440 1439 1437 1436 1435 1433 1432 1430 1430 1429 1428 1428 1427 1426 1426 1426 1425 1425 1425 1425 1425 1425 1425 1424 1424 1424
1451 1451 1452 1451 1452 1452 1451 1450 1450 1449 1448 1447 1446 1445 1443 1441 1440 1439 1438 1436 1435 1433 1432 1430 1429 1428 1427 1426 1426 1425 1425 1424 1424 1423 1423 1423 1423 1423 1422 1422 1422 1422 1422 1422
1448 1449 1449 1448 1449 1448 1448 1447 1447 1446 1445 1444 1443 1442 1440 1439 1438 1436 1435 1434 1432 1431 1429 1428 1427 1425 1425 1424 1423 1422 1422 1422 1421 1421 1421 1421 1421 1421 1420 1420 1420 1419 1420 1420
1445 1445 1446 1445 1446 1445 1445 1444 1444 1443 1442 1441 1440 1439 1437 1436 1435 1434 1433 1431 1430 1429 1427 1426 1424 1423 1422 1421 1420 1420 1419 1419 1419 1419 1419 1419 1419 1419 1418 1418 1418 1417 1417 1417
1442 1443 1443 1443 1442 1442 1442 1441 1440 1440 1439 1438 1437 1436 1435 1434 1433 1431 1430 1429 1428 1426 1425 1424 1422 1421 1420 1419 1418 1417 1417 1417 1417 1417 1416 1416 1416 1416 1416 1416 1415 1415 1415 1415
1440 1439 1439 1439 1439 1439 1439 1438 1438 1437 1436 1435 1434 1434 1432 1431 1430 1429 1428 1427 1426 1425 1423 1422 1420 1419 1418 1417 1416 1415 1415 1415 1414 1414 1414 1414 1414 1414 1413 1413 1413 1413 1413 1413
1437 1437 1437 1436 1436 1436 1436 1436 1435 1434 1434 1433 1432 1431 1430 1429 1428 1427 1426 1425 1424 1422 1421 1420 1418 1417 1416 1415 1414 1413 1413 1413 1412 1412 1412 1412 1411 1411 1411 1411 1411 1411 1410 1410
1434 1434 1434 1434 1434 1434 1433 1433 1433 1432 1431 1431 1430 1429 1428 1427 1426 1425 1424 1423 1421 1420 1419 1417 1416 1415 1414 1413 1412 1411 1411 1410 1410 1410 1410 1409 1409 1409 1409 1409 1409 1408 1408 1408
1432 1432 1432 1432 1432 1431 1431 1431 1430 1429 1429 1428 1428 1427 1426 1425 1424 1423 1422 1421 1419 1418 1417 1415 1414 1413 1412 1411 1410 1409 1409 1408 1408 1408 1407 1407 1407 1407 1407 1407 1407 1406 1406 1406
1429 1429 1430 1429 1429 1429 1429 1428 1428 1427 1426 1426 1425 1424 1424 1423 1422 1421 1420 1418 1417 1416 1414 1413 1412 1410 1410 1409 1408 1407 1407 1406 1406 1406 1405 1405 1405 1405 1405 1405 1405 1404 1404 1403
1427 1427 1427 1427 1427 1426 1426 1426 1425 1425 1424 1424 1423 1422 1421 1420 1419 1418 1417 1416 1415 1413 1412 1411 1409 1408 1407 1407 1406 1405 1405 1404 1404 1404 1403 1403 1403 1403 1403 1403 1403 1402 1402 1402
1425 1425 1425 1425 1425 1424 1424 1424 1423 1423 1422 1421 1420 1420 1419 1418 1417 1416 1415 1414 1412 1411 1410 1409 1407 1406 1406 1405 1404 1403 1403 1402 1402 1402 1402 1402 1401 1401 1401 1401 1401 1401 1400 1400
1423 1423 1423 1423 1423 1422 1422 1421 1421 1420 1420 1419 1418 1418 1417 1416 1415 1414 1413 1411 1410 1409 1408 1407 1406 1404 1403 1403 1402 1401 1400 1400 1400 1400 1400 1400 1400 1400 1400 1400 1399 1399 1399 1398
1421 1421 1421 1421 1420 1420 1420 1419 1419 1418 1417 1417 1416 1415 1415 1414 1413 1411 1410 1409 1408 1407 1406 1404 1403 1402 1402 1401 1400 1399 1399 1399 1399 1399 1399 1399 1399 1399 1398 1398 1398 1397 1397 1397
1419 1419 1419 1419 1419 1418 1418 1417 1417 1416 1416 1415 1414 1413 1413 1412 1411 1410 1409 1407 1406 1405 1404 1403 1401 1401 1400 1399 1399 1398 1398 1398 1397 1397 1397 1397 1397 1397 1397 1396 1396 1396 1396 1395
1417 1417 1417 1417 1417 1417 1416 1416 1415 1415 1414 1413 1412 1412 1411 1410 1409 1408 1407 1406 1405 1403 1402 1401 1400 1399 1399 1398 1398 1397 1397 1397 1396 1396 1396 1396 1396 1396 1395 1395 1395 1394 1394 1394